Regional Weather Roundup
Issued by NWS Cleveland, OH

Home | Current Version | Previous Version | Graphics & Text | Print | Product List | Glossary On
Versions: 1 2 3 4 5 6 7 8 9 10 11 12 13 14 15 16 17 18 19 20 21 22 23 24 25 26 27 28 29 30 31 32 33 34 35 36 37 38 39 40 41 42 43 44 45 46 47 48 49 50
000
ASUS41 KCLE 290400
RWRCLE
OHIO REGIONAL WEATHER ROUNDUP
NATIONAL WEATHER SERVICE WILMINGTON, OH
1200 AM EDT FRI APR 29 2016

NOTE: "FAIR" INDICATES FEW OR NO CLOUDS BELOW 12,000 FEET WITH NO
SIGNIFICANT WEATHER AND/OR OBSTRUCTIONS TO VISIBILITY.

OHZ001>008-015>018-024>027-034-035-043-044-290500-
   NORTHWEST OHIO

CITY           SKY/WX    TMP DP  RH WIND       PRES   REMARKS
DEFIANCE       CLOUDY    48  36  63 E6        30.00S
FINDLAY        CLOUDY    46  41  82 N6        29.97S
TOLEDO EXPRESS CLOUDY    47  35  63 E9        30.00R
TOLEDO EXEC    CLOUDY    47  38  71 NE7       30.00S
LIMA           CLOUDY    45  44  97 N7        29.97F
$$

OHZ009>014-019>023-028>033-038-089-290500-
   NORTHEAST OHIO

CITY           SKY/WX    TMP DP  RH WIND       PRES   REMARKS
CLE-HOPKINS    CLOUDY    48  44  86 NE7       29.99S
CLE-LAKEFRONT  CLOUDY    47  43  86 NE12      29.97S
CUY CO. ARPT   NOT AVBL
LORAIN-ELYRIA  CLOUDY    46  42  86 NE7       29.96F
ASHTABULA      CLOUDY    44  43  96 NW5       29.99R
AKRON-CANTON   CLOUDY    47  43  86 E6        29.95F
WOOSTER        NOT AVBL
MANSFIELD      CLOUDY    49  47  93 CALM      29.96R
YOUNGSTOWN     LGT RAIN  45  42  89 SE6       29.96R
$$

OHZ042-051>053-060>062-070>072-077>081-290500-
  SOUTHWEST OHIO

CITY           SKY/WX    TMP DP  RH WIND       PRES   REMARKS
CINC-COVINGTON FAIR      60  57  89 N5        29.94S
CINC-LUNKEN    FAIR      57  57 100 NE3       29.95R
HAMILTON       CLOUDY    58  55  90 N6        29.96R FOG
DAYTON         NOT AVBL
WRIGHT-PAT AFB NOT AVBL
DAYTON GENERAL MOCLDY    53  50  89 N5        29.95R FOG
WILMINGTON     FAIR      53  51  93 NE7       29.94S FOG
$$

OHZ036-037-039>041-045>050-054>059-063>069-073>076-082>088-290500-
  CENTRAL AND SOUTHEAST OHIO

CITY           SKY/WX    TMP DP  RH WIND       PRES   REMARKS
COLUMBUS       CLOUDY    53  50  89 N6        29.94R
OSU AIRPORT    MOCLDY    51  49  92 N6        29.94S
BOLTON FIELD   NOT AVBL
RICKENBACK AFB NOT AVBL
NEWARK         CLOUDY    55  50  83 CALM      29.93F
MARION         CLOUDY    48  47  96 N7        29.95S FOG
LANCASTER      CLOUDY    56  53  90 N5        29.95S FOG
ZANESVILLE     LGT RAIN  55  51  86 N6        29.93R
NEW PHILLY     CLOUDY    48  44  86 VRB6      29.93F
$$



USA.gov is the U.S. government's official web portal to all federal, state and local government web resources and services.